TimeEDT,TemperatureF,Dew PointF,Humidity,Sea Level PressureIn,VisibilityMPH,Wind Direction,Wind SpeedMPH,Gust SpeedMPH,PrecipitationIn,Events,Conditions,WindDirDegrees,DateUTC
12:27 AM,50.0,44.6,82,29.67,10.0,WNW,5.8,-,N/A,,Overcast,300,2012-10-11 04:27:00
12:53 AM,48.9,44.1,83,29.69,10.0,West,5.8,-,N/A,,Overcast,280,2012-10-11 04:53:00
1:53 AM,48.0,41.0,77,29.70,10.0,WNW,5.8,-,N/A,,Overcast,290,2012-10-11 05:53:00
2:53 AM,48.0,39.0,71,29.71,10.0,West,8.1,-,N/A,,Overcast,270,2012-10-11 06:53:00
3:53 AM,46.0,39.0,76,29.73,10.0,West,4.6,-,N/A,,Overcast,270,2012-10-11 07:53:00
4:53 AM,45.0,39.0,80,29.75,10.0,WSW,6.9,-,N/A,,Clear,240,2012-10-11 08:53:00
5:53 AM,46.0,35.1,66,29.79,10.0,West,10.4,20.7,N/A,,Clear,280,2012-10-11 09:53:00
6:53 AM,45.0,35.1,68,29.82,10.0,West,9.2,25.3,N/A,,Clear,260,2012-10-11 10:53:00
7:53 AM,45.0,35.1,68,29.85,10.0,West,5.8,-,N/A,,Clear,270,2012-10-11 11:53:00
8:53 AM,46.9,35.1,63,29.89,10.0,West,10.4,20.7,N/A,,Mostly Cloudy,280,2012-10-11 12:53:00
9:53 AM,48.9,33.1,54,29.93,10.0,WNW,11.5,19.6,N/A,,Overcast,300,2012-10-11 13:53:00
10:53 AM,48.9,28.0,44,29.96,10.0,WNW,16.1,32.2,N/A,,Clear,300,2012-10-11 14:53:00
11:53 AM,50.0,28.0,43,29.99,10.0,WNW,16.1,28.8,N/A,,Scattered Clouds,290,2012-10-11 15:53:00
12:53 PM,52.0,26.1,37,29.98,10.0,WNW,13.8,31.1,N/A,,Mostly Cloudy,290,2012-10-11 16:53:00
1:53 PM,52.0,25.0,35,29.99,10.0,West,20.7,33.4,N/A,,Clear,280,2012-10-11 17:53:00
2:53 PM,52.0,25.0,35,30.02,10.0,West,18.4,29.9,N/A,,Clear,270,2012-10-11 18:53:00
3:53 PM,51.1,27.0,39,30.02,10.0,West,11.5,17.3,N/A,,Partly Cloudy,280,2012-10-11 19:53:00
4:53 PM,52.0,27.0,38,30.03,10.0,WNW,6.9,-,N/A,,Partly Cloudy,290,2012-10-11 20:53:00
5:53 PM,50.0,26.6,40,30.04,10.0,West,5.8,-,N/A,,Clear,260,2012-10-11 21:53:00
6:53 PM,48.0,28.0,46,30.06,10.0,West,4.6,-,N/A,,Clear,270,2012-10-11 22:53:00
7:53 PM,46.0,28.9,51,30.06,10.0,Calm,Calm,-,N/A,,Clear,0,2012-10-11 23:53:00
8:53 PM,44.6,30.2,57,30.05,10.0,SSW,5.8,-,N/A,,Clear,210,2012-10-12 00:53:00
9:53 PM,42.1,30.9,65,30.06,10.0,SSW,5.8,-,N/A,,Clear,200,2012-10-12 01:53:00
10:53 PM,42.1,33.1,70,30.07,10.0,SSW,5.8,-,N/A,,Mostly Cloudy,200,2012-10-12 02:53:00
11:53 PM,45.0,35.1,68,30.06,10.0,SSW,3.5,-,N/A,,Overcast,210,2012-10-12 03:53:00